Location: Demre
(36.2444°N, 29.9850°E)
Time: 05:47:34
(UTC+00:00)

USA 267 - Pass Details

Date: 11 March 2026
Orbit: 1101 x 1107 km, 123.0° (Epoch: 10 January)

Event Time Altitude Azimuth Distance (km) Brightness Sun altitude
Exits shadow 16:50:50 - 59° (ENE) 3,331 5.3 -10.3°
Reaches altitude 10° 16:51:56 10° 64° (ENE) 2,962 5.0 -10.5°
Maximum altitude 16:57:40 32° 125° (SE) 1,787 3.9 -11.7°
Drops below altitude 10° 17:03:21 10° 187° (S) 2,946 5.5 -12.8°
Sets 17:06:07 0° 196° (SSW) 3,900 6.3 -13.4°
